BEIDOU-2 IGSO-7

Last updated on Sat Mar 14 2026 00:02:56 GMT+0000 (Coordinated Universal Time)

1 43539U 18057A 26071.66561668 -.00000155 00000+0 00000+0 0 9995 2 43539 55.1864 163.9036 0100568 236.8107 121.9133 1.00280880 28153
UTC large
Height (km)
Speed (km/s)
/
Latitude / Longitude
Inclination (degrees)
Orbital Period (minutes)
Azimuth
Elevation
Range (km)
Doppler Factor

Next 0 passes for location: London (51.5072 / 0.1276)

Sorry there are no passes over London.